| time (UTC) | temp F | wind direction | speed MPH | gust MPH | rain 1hr in | rain 24hr in | rain mn in | humidity % | barometer mb |
| 20260901104529 | 58 | 224 | 0.0 | 0.0 | 0.00 | 0.00 | 0.00 | 89 | 1014.3 |
| 20260901103032 | 58 | 224 | 0.0 | 0.0 | 0.00 | 0.00 | 0.00 | 89 | 1014.2 |
| 20260901101529 | 58 | 224 | 0.0 | 0.0 | 0.00 | 0.00 | 0.00 | 89 | 1014.2 |
| 20260901100028 | 58 | 224 | 0.0 | 0.0 | 0.00 | 0.00 | 0.00 | 88 | 1014.1 |
| 20260901094526 | 58 | 224 | 0.0 | 0.0 | 0.00 | 0.00 | 0.00 | 89 | 1014.2 |
| 20260901093029 | 58 | 224 | 0.0 | 0.0 | 0.00 | 0.00 | 0.00 | 89 | 1014.3 |
| 20260901091524 | 58 | 224 | 0.0 | 0.0 | 0.00 | 0.00 | 0.00 | 89 | 1014.2 |
| 20260901090023 | 58 | 224 | 0.0 | 0.0 | 0.00 | 0.00 | 0.00 | 89 | 1014.2 |
| 20260901084523 | 59 | 224 | 0.0 | 0.0 | 0.00 | 0.00 | 0.00 | 89 | 1014.2 |
| 20260901083022 | 59 | 224 | 0.0 | 0.0 | 0.00 | 0.00 | 0.00 | 88 | 1014.2 |
| 20260901081520 | 59 | 224 | 0.0 | 0.0 | 0.00 | 0.00 | 0.00 | 88 | 1014.2 |
| 20260901080026 | 59 | 224 | 0.0 | 0.0 | 0.00 | 0.00 | 0.00 | 88 | 1014.3 |
| 20260901074520 | 59 | 224 | 0.0 | 0.0 | 0.00 | 0.00 | 0.00 | 88 | 1014.4 |
| 20260901073017 | 59 | 224 | 0.0 | 0.0 | 0.00 | 0.00 | 0.00 | 88 | 1014.2 |
| 20260901071516 | 59 | 224 | 0.0 | 0.0 | 0.00 | 0.00 | 0.00 | 87 | 1014.2 |
| 20260901070019 | 59 | 224 | 0.0 | 0.0 | 0.00 | 0.00 | 0.00 | 88 | 1014.2 |
| 20260901064519 | 59 | 224 | 0.0 | 0.0 | 0.00 | 0.00 | 0.00 | 87 | 1014.3 |
| 20260901063024 | 59 | 224 | 0.0 | 0.0 | 0.00 | 0.00 | 0.00 | 87 | 1014.1 |
| 20260901061512 | 59 | 224 | 0.0 | 0.0 | 0.00 | 0.00 | 0.00 | 87 | 1014.4 |
| 20260901060011 | 59 | 224 | 0.0 | 0.0 | 0.00 | 0.00 | 0.00 | 86 | 1014.4 |
| 20260901054510 | 59 | 224 | 0.0 | 0.0 | 0.00 | 0.00 | 0.00 | 86 | 1014.5 |
| 20260901053011 | 60 | 224 | 0.0 | 0.0 | 0.00 | 0.00 | 0.00 | 85 | 1014.7 |
| 20260901051509 | 60 | 224 | 0.0 | 0.0 | 0.00 | 0.00 | 0.00 | 85 | 1014.7 |
| 20260901050009 | 60 | 224 | 0.0 | 0.0 | 0.00 | 0.00 | 0.00 | 85 | 1014.8 |
| 20260901044509 | 60 | 224 | 0.0 | 0.0 | 0.00 | 0.00 | 0.00 | 85 | 1014.9 |
| 20260901043008 | 60 | 224 | 0.0 | 0.0 | 0.00 | 0.00 | 0.00 | 85 | 1014.8 |
| 20260901041507 | 60 | 224 | 0.0 | 0.0 | 0.00 | 0.00 | 0.00 | 85 | 1014.6 |
| 20260901040005 | 60 | 224 | 0.0 | 0.0 | 0.00 | 0.00 | 0.00 | 85 | 1014.4 |
| 20260901034511 | 60 | 224 | 0.0 | 0.0 | 0.00 | 0.00 | 0.00 | 84 | 1014.4 |
| 20260901033006 | 60 | 224 | 0.0 | 0.0 | 0.00 | 0.00 | 0.00 | 84 | 1014.4 |
| 20260901031505 | 61 | 224 | 0.0 | 0.0 | 0.00 | 0.00 | 0.00 | 83 | 1014.3 |
| 20260901030100 | 61 | 224 | 0.0 | 0.0 | 0.00 | 0.00 | 0.00 | 82 | 1014.1 |
| 20260901024606 | 61 | 224 | 0.0 | 2.0 | 0.00 | 0.00 | 0.00 | 81 | 1014.1 |
| 20260901023059 | 62 | 224 | 0.0 | 0.0 | 0.00 | 0.00 | 0.00 | 80 | 1014.1 |
| 20260901021600 | 62 | 224 | 0.0 | 2.0 | 0.00 | 0.00 | 0.00 | 79 | 1014.0 |
| 20260901020058 | 62 | 224 | 0.0 | 2.0 | 0.00 | 0.00 | 0.00 | 78 | 1014.0 |
| 20260901014658 | 63 | 224 | 0.0 | 2.0 | 0.00 | 0.00 | 0.00 | 77 | 1013.9 |
| 20260901013115 | 64 | 143 | 1.0 | 4.0 | 0.00 | 0.00 | 0.00 | 76 | 1013.9 |
| 20260901011555 | 64 | 256 | 0.0 | 4.0 | 0.00 | 0.00 | 0.00 | 74 | 1014.0 |
| 20260901010057 | 66 | 235 | 2.0 | 5.0 | 0.00 | 0.00 | 0.00 | 73 | 1014.0 |
| 20260901004554 | 65 | 107 | 1.0 | 5.0 | 0.00 | 0.00 | 0.00 | 74 | 1014.0 |
| 20260901003054 | 64 | 136 | 3.0 | 7.0 | 0.00 | 0.00 | 0.00 | 75 | 1013.9 |
| 20260901001553 | 64 | 321 | 2.0 | 5.0 | 0.00 | 0.00 | 0.00 | 76 | 1013.8 |
| 20260901000052 | 64 | 216 | 0.0 | 5.0 | 0.00 | 0.00 | 0.00 | 75 | 1013.8 |
| 20260831234601 | 65 | 237 | 2.0 | 6.0 | 0.00 | 0.01 | 0.00 | 74 | 1014.0 |
| 20260831233055 | 67 | 268 | 2.0 | 6.0 | 0.00 | 0.01 | 0.00 | 72 | 1013.8 |
| 20260831231550 | 68 | 63 | 2.0 | 8.0 | 0.00 | 0.01 | 0.00 | 71 | 1013.9 |
| 20260831230049 | 68 | 227 | 3.0 | 9.0 | 0.00 | 0.01 | 0.00 | 70 | 1013.8 |
| 20260831224547 | 68 | 240 | 1.0 | 7.0 | 0.00 | 0.01 | 0.00 | 71 | 1013.9 |
| 20260831223054 | 68 | 186 | 3.0 | 11.0 | 0.00 | 0.01 | 0.00 | 72 | 1013.9 |
| 20260831221544 | 68 | 275 | 1.0 | 8.0 | 0.00 | 0.01 | 0.00 | 72 | 1013.8 |
| 20260831220046 | 69 | 185 | 1.0 | 6.0 | 0.00 | 0.01 | 0.00 | 70 | 1013.9 |
| 20260831214557 | 69 | 355 | 2.0 | 10.0 | 0.00 | 0.01 | 0.00 | 70 | 1013.7 |
| 20260831213043 | 69 | 100 | 3.0 | 11.0 | 0.00 | 0.01 | 0.00 | 70 | 1013.7 |
| 20260831211545 | 69 | 263 | 1.0 | 11.0 | 0.00 | 0.01 | 0.00 | 68 | 1013.6 |
| 20260831210042 | 69 | 269 | 0.0 | 14.0 | 0.00 | 0.01 | 0.00 | 70 | 1013.5 |
| 20260831204542 | 70 | 303 | 1.0 | 11.0 | 0.00 | 0.01 | 0.00 | 69 | 1013.4 |
| 20260831203041 | 70 | 317 | 3.0 | 9.0 | 0.00 | 0.01 | 0.00 | 68 | 1013.3 |
| 20260831201539 | 70 | 319 | 6.0 | 15.0 | 0.00 | 0.01 | 0.00 | 69 | 1013.2 |
| 20260831200035 | 69 | 214 | 2.0 | 11.0 | 0.00 | 0.01 | 0.00 | 72 | 1013.3 |
| 20260831194536 | 68 | 198 | 3.0 | 9.0 | 0.00 | 0.01 | 0.00 | 72 | 1013.6 |
| 20260831193104 | 68 | 278 | 3.0 | 12.0 | 0.00 | 0.01 | 0.00 | 73 | 1013.6 |
| 20260831191534 | 67 | 254 | 5.0 | 12.0 | 0.00 | 0.01 | 0.00 | 72 | 1013.5 |
| 20260831190040 | 68 | 211 | 3.0 | 10.0 | 0.00 | 0.01 | 0.00 | 73 | 1013.5 |
| 20260831184533 | 68 | 267 | 4.0 | 10.0 | 0.00 | 0.01 | 0.00 | 71 | 1013.4 |
| 20260831183032 | 68 | 218 | 1.0 | 13.0 | 0.00 | 0.01 | 0.00 | 72 | 1013.2 |
| 20260831181544 | 67 | 245 | 2.0 | 3.0 | 0.00 | 0.01 | 0.00 | 71 | 1013.0 |
| 20260831180034 | 66 | 360 | 2.0 | 4.0 | 0.00 | 0.01 | 0.00 | 75 | 1013.1 |
| 20260831174523 | 64 | 306 | 1.0 | 4.0 | 0.00 | 0.01 | 0.00 | 79 | 1013.3 |
| 20260831173020 | 61 | 32 | 0.0 | 2.0 | 0.00 | 0.01 | 0.00 | 86 | 1013.3 |
| 20260831171515 | 58 | 32 | 0.0 | 2.0 | 0.00 | 0.01 | 0.00 | 92 | 1013.3 |
| 20260831170010 | 56 | 32 | 0.0 | 2.0 | 0.00 | 0.01 | 0.00 | 97 | 1013.4 |
| 20260831164505 | 54 | 32 | 0.0 | 0.0 | 0.00 | 0.01 | 0.00 | 98 | 1013.5 |
| 20260831163003 | 52 | 32 | 0.0 | 0.0 | 0.00 | 0.01 | 0.00 | 98 | 1013.4 |
| 20260831161504 | 50 | 32 | 0.0 | 0.0 | 0.00 | 0.01 | 0.00 | 98 | 1013.4 |
| 20260831160001 | 49 | 32 | 0.0 | 0.0 | 0.00 | 0.01 | 0.00 | 97 | 1013.6 |
| 20260831154612 | 48 | 32 | 0.0 | 0.0 | 0.00 | 0.01 | 0.00 | 97 | 1013.6 |
| 20260831153059 | 47 | 32 | 0.0 | 0.0 | 0.00 | 0.01 | 0.00 | 97 | 1013.7 |
| 20260831151558 | 46 | 32 | 0.0 | 0.0 | 0.00 | 0.01 | 0.00 | 97 | 1013.7 |
| 20260831150105 | 46 | 32 | 0.0 | 0.0 | 0.00 | 0.01 | 0.00 | 97 | 1013.7 |
| 20260831144601 | 46 | 32 | 0.0 | 0.0 | 0.00 | 0.01 | 0.00 | 96 | 1013.6 |
| 20260831143057 | 46 | 32 | 0.0 | 0.0 | 0.00 | 0.01 | 0.00 | 96 | 1013.4 |
| 20260831141556 | 46 | 32 | 0.0 | 0.0 | 0.00 | 0.01 | 0.00 | 96 | 1013.3 |
| 20260831140056 | 46 | 32 | 0.0 | 0.0 | 0.00 | 0.01 | 0.00 | 96 | 1013.1 |
| 20260831134604 | 46 | 32 | 0.0 | 0.0 | 0.00 | 0.01 | 0.00 | 96 | 1012.9 |
| 20260831133054 | 46 | 32 | 0.0 | 0.0 | 0.00 | 0.01 | 0.00 | 96 | 1013.0 |
| 20260831131600 | 46 | 32 | 0.0 | 0.0 | 0.00 | 0.01 | 0.00 | 96 | 1012.8 |
| 20260831130051 | 46 | 32 | 0.0 | 0.0 | 0.00 | 0.01 | 0.00 | 96 | 1012.8 |
| 20260831124550 | 47 | 32 | 0.0 | 0.0 | 0.00 | 0.01 | 0.00 | 96 | 1012.9 |
| 20260831123049 | 47 | 32 | 0.0 | 0.0 | 0.00 | 0.01 | 0.00 | 96 | 1012.9 |
| 20260831121548 | 47 | 32 | 0.0 | 0.0 | 0.00 | 0.01 | 0.00 | 96 | 1013.1 |
| 20260831120046 | 47 | 32 | 0.0 | 0.0 | 0.00 | 0.01 | 0.00 | 96 | 1013.1 |
| 20260831114545 | 47 | 32 | 0.0 | 0.0 | 0.00 | 0.01 | 0.00 | 96 | 1013.1 |
| 20260831113047 | 48 | 32 | 0.0 | 0.0 | 0.00 | 0.01 | 0.00 | 96 | 1013.0 |
| 20260831111550 | 48 | 32 | 0.0 | 0.0 | 0.00 | 0.01 | 0.00 | 96 | 1013.1 |
| 20260831110041 | 48 | 32 | 0.0 | 0.0 | 0.00 | 0.01 | 0.00 | 95 | 1013.0 |